This is the latest recevied weather packets stored in our database for station/object N3FAA. If no packets are shown the sender has not sent any weather packets the latest 10 day(s).
| Time | Temp. | Humidity | Pressure | Rain* | Wind** | Luminosity | Snow |
|---|---|---|---|---|---|---|---|
| 1778337772 | 22.22° C | 30% | 1011.3 hPa | 0 mm | - | 186 W/m² | - |
| 1778337469 | 21.67° C | 31% | 1011.3 hPa | 0 mm | - | 151 W/m² | - |
| 1778337166 | 21.11° C | 32% | 1011.1 hPa | 0 mm | - | 153 W/m² | - |
| 1778336862 | 21.11° C | 33% | 1011.6 hPa | 0 mm | - | 147 W/m² | - |
| 1778336558 | 20.56° C | 34% | 1011.3 hPa | 0 mm | - | 137 W/m² | - |
| 1778336254 | 20.56° C | 35% | 1011.1 hPa | 0 mm | - | 110 W/m² | - |
| 1778335952 | 20° C | 36% | 1011.1 hPa | 0 mm | - | 98 W/m² | - |
| 1778335648 | 20° C | 37% | 1011.4 hPa | 0 mm | - | 69 W/m² | - |
| 1778335345 | 19.44° C | 39% | 1011.4 hPa | 0 mm | - | 61 W/m² | - |
| 1778335043 | 18.89° C | 40% | 1011.1 hPa | 0 mm | - | 56 W/m² | - |
| 1778334741 | 18.89° C | 41% | 1011.3 hPa | 0 mm | - | 51 W/m² | - |
| 1778334437 | 18.89° C | 42% | 1011.1 hPa | 0 mm | - | 46 W/m² | - |
| 1778334135 | 18.33° C | 42% | 1010.9 hPa | 0 mm | - | 42 W/m² | - |
| 1778333832 | 18.33° C | 44% | 1011 hPa | 0 mm | - | 36 W/m² | - |
| 1778333528 | 17.78° C | 46% | 1011 hPa | 0 mm | - | 31 W/m² | - |
| 1778333227 | 17.78° C | 46% | 1011.1 hPa | 0 mm | - | 27 W/m² | - |
| 1778332925 | 17.78° C | 46% | 1011.1 hPa | 0 mm | - | 23 W/m² | - |
| 1778332621 | 17.78° C | 45% | 1011 hPa | 0 mm | - | 18 W/m² | - |
| 1778332318 | 17.78° C | 47% | 1011.1 hPa | 0 mm | - | 13 W/m² | - |
| 1778332014 | 17.78° C | 47% | 1011 hPa | 0 mm | - | 10 W/m² | - |
| 1778331710 | 17.78° C | 47% | 1011 hPa | 0 mm | - | 6 W/m² | - |
| 1778331407 | 17.78° C | 47% | 1010.9 hPa | 0 mm | - | 3 W/m² | - |
| 1778331103 | 17.78° C | 46% | 1011 hPa | 0 mm | - | 1 W/m² | - |
| 1778330800 | 17.78° C | 45% | 1010.9 hPa | 0 mm | - | 0 W/m² | - |
| 1778330497 | 17.78° C | 45% | 1011 hPa | 0 mm | - | 0 W/m² | - |
* Rain latest hour (hover to see other rain measurements)
** Current wind speed in m/s (hover to see current wind gust speed)